Probability
0 0 0 0 0 0 0 0 0 0 0 0 0 0 0 0 0 0 0 0 0 0 0 0 0 0 0 0 0 0 0 0 0 0 0 0 0 0 0 0 0 0 0 0
0 0 0 0 0 0 0 0 0 0 0 0 0 0 0 0 0 0 0 0 0 0 0 0 0 0 0 0 0 0 0 0 0 0 0 0 0 0 0 0 0 0 0 0
0 0 0 0 0 0 0 0 0 0 0 0 0 0 0 0 0 0 0 0 0 0 0 0 0 0 0 0 0 0 0 0 0 0 0 0 0 0 0 0 0 0 0 0
0 0 0 0 0 0 0 0 0 0 0 0 0 0 0 0 0 0 0 0 0 0 0 0 0 0 0 0 0 0 0 0 0 0 0 0 0 0 0 0 0 0 0 0
0 0 0 0 0 0 0 0 0 0 0 0 0 0 0 0 0 0 0 0 0 0 0 0 0 0 0 0 0 0 0 0 0 0 0 0 0 0 0 0 0 0 0 0
0 0 0 0 0 0 0 0 0 0 0 0 0 0 0 0 0 0 0 0 0 0 0 0 0 0 0 0 0 0 0 0 0 0 0 0 0 0 0 0 0 0 0 0
0 0 0 0 0 0 0 0 0 0 0 0 0 0 0 0 0 0 0 0 0 0 0 0 0 0 0 0 0 0 0 0 0 0 0 0 0 0 0 0 0 0 0 0
0 0 0 0 0 0 0 0 0 0 0 0 0 0 0 0 0 0 0 0 0 0 0 0 0 0 0 0 0 0 0 0 0 0 0 0 0 0 0 0 0 0 0 0
0 0 0 0 0 0 0 0 0 0 0 0 0 0 0 0 0 0 0 0 0 0 0 0 0 0 0 0 0 0 0 0 0 0 0 0 0 0 0 0 0 0 0 0
0 0 0 0 0 0 0 0 0 0 0 0 0 0 0 0 0 0 0 0 0 0 0 0 0 0 0 0 0 0 0 0 0 0 0 0 0 0 0 0 0 0 0 0
0 0 0 0 0 0 0 0 0 0 0 0 0 0 0 0 0 0 0 0 0 0 0 0 0 0 0 0 0 0 0 0 0 0 0 0 0 0 0 0 0 0 0 0
0 0 0 0 0 0 0 0 0 0 0 0 0 0 0 0 0 0 0 0 0 0 0 0 0 0 0 0 0 0 0 0 0 0 0 0 0 0 0 0 0 0 0 0
0 0 0 0 0 0 0 0 0 0 0 0 0 0 0 0 0 0 0 0 0 0 0 0 0 0 0 0 0 0 0 0 0 0 0 0 0 0 0 0 0 0 0 0
0 0 0 0 0 0 0 0 0 0 0 0 0 0 0 0 0 0 0 0 0 0 0 0 0 0 0 0 0 0 0 0 0 0 0 0 0 0 0 0 0 0 0 0
0 0 0 0 0 0 0 0 0 0 0 0 0 0 0 0 0 0 0 0 0 0 0 0 0 0 0 0 0 0 0 0 0 0 0 0 0 0 0 0 0 0 0 0
0 0 0 0 0 0 0 0 0 0 0 0 0 0 0 0 0 0 0 0 0 0 0 0 0 0 0 0 0 0 0 0 0 0 0 0 0 0 0 0 0 0 0 0
0 0 0 0 0 0 0 0 0 0 0 0 0 0 0 0 0 0 0 0 0 0 0 0 0 0 0 0 0 0 0 0 0 0 0 0 0 0 0 0 0 0 0 0
0 0 0 0 0 0 0 0 0 0 0 0 0 0 0 0 0 0 0 0 0 0 0 0 0 0 0 0 0 0 0 0 0 0 0 0 0 0 0 0 0 0 0 0
0 0 0 0 0 0 0 0 0 0 0 0 0 0 0 0 0 0 0 0 0 0 0 0 0 0 0 0 0 0 0 0 0 0 0 0 0 0 0 0 0 0 0 0
0 0 0 0 0 0 0 0 0 0 0 0 0 0 0 0 0 0 0 0 0 0 0 0 0 0 0 0 0 0 0 0 0 0 0 0 0 0 0 0 0 0 0 0
0 0 0 0 0 0 0 0 0 0 0 0 0 0 0 0 0 0 0 0 0 0 0 0 0 0 0 0 0 0 0 0 0 0 0 0 0 0 0 0 0 0 0 0
0 0 0 0 0 0 0 0 0 0 0 0 0 0 0 0 0 0 0 0 0 0 0 0 0 0 0 0 0 0 0 0 0 0 0 0 0 0 0 0 0 0 0 0
0 0 0 0 0 0 0 0 0 0 0 0 0 0 0 0 0 0 0 0 0 0 0 0 0 0 0 0 0 0 0 0 0 0 0 0 0 0 0 0 0 0 0 0
0 0 0 0 0 0 0 0 0 0 0 0 0 0 0 0 0 0 0 0 0 0 0 0 0 0 0 0 0 0 0 0 0 0 0 0 0 0 0 0 0 0 0 0
0 0 0 0 0 0 0 0 0 0 0 0 0 0 0 0 0 0 0 0 0 0 0 0 0 0 0 0 0 0 0 0 0 0 0 0 0 0 0 0 0 0 0 0
0 0 0 0 0 0 0 0 0 0 0 0 0 0 0 0 0 0 0 0 0 0 0 0 0 0 0 0 0 0 0 0 0 0 0 0 0 0 0 0 0 0 0 0
0 0 0 0 0 0 0 0 0 0 0 0 0 0 0 0 0 0 0 0 0 0 0 0 0 0 0 0 0 0 0 0 0 0 0 0 0 0 0 0 0 0 0 0
Height
5522 5521 5519 5519 5518 5518 5518 5517 5517 5517 5517 5517 5517 5518 5519 5520 5521 5523 5526 5528 5531 5534 5538 5542 5547 5552 5557 5563 5568 5574 5580 5585 5592 5598 5604 5611 5617 5624 5629 5635 5640 5645 5650 5654
5518 5516 5514 5513 5513 5512 5512 5511 5511 5511 5511 5511 5510 5510 5511 5512 5513 5515 5516 5518 5520 5523 5527 5531 5535 5539 5544 5550 5555 5561 5566 5572 5578 5584 5591 5598 5604 5610 5616 5622 5627 5632 5637 5642
5513 5511 5509 5509 5508 5506 5506 5505 5505 5504 5505 5504 5504 5504 5504 5504 5505 5506 5507 5509 5511 5513 5516 5519 5523 5527 5532 5537 5542 5548 5553 5559 5565 5571 5578 5584 5590 5596 5602 5608 5614 5620 5625 5629
5508 5507 5505 5506 5502 5500 5500 5499 5498 5498 5498 5497 5497 5497 5497 5497 5497 5498 5499 5500 5501 5504 5506 5509 5512 5516 5520 5525 5530 5535 5540 5546 5552 5558 5564 5571 5577 5583 5589 5595 5601 5606 5612 5617
5504 5502 5500 5500 5497 5495 5494 5493 5492 5491 5491 5491 5490 5490 5491 5490 5490 5490 5491 5491 5493 5494 5497 5499 5502 5505 5509 5513 5518 5523 5528 5533 5538 5544 5551 5557 5564 5570 5575 5581 5587 5593 5598 5603
5500 5497 5496 5496 5492 5490 5489 5488 5486 5485 5485 5484 5484 5484 5485 5483 5483 5483 5483 5484 5484 5486 5488 5490 5492 5495 5498 5502 5506 5510 5515 5520 5525 5531 5537 5544 5550 5556 5562 5568 5574 5579 5585 5590
5497 5493 5491 5490 5487 5486 5485 5484 5481 5479 5479 5478 5477 5477 5477 5476 5475 5475 5475 5476 5477 5478 5479 5480 5483 5485 5488 5491 5495 5499 5503 5507 5512 5518 5524 5530 5537 5543 5549 5555 5560 5566 5571 5576
5493 5490 5490 5485 5483 5481 5479 5477 5475 5474 5473 5472 5471 5470 5470 5469 5468 5468 5468 5468 5469 5470 5471 5472 5473 5475 5478 5481 5484 5488 5492 5496 5500 5505 5511 5517 5523 5530 5535 5541 5547 5552 5557 5561
5490 5488 5484 5480 5478 5476 5474 5472 5470 5468 5467 5466 5465 5464 5464 5463 5462 5462 5461 5461 5461 5462 5463 5464 5465 5466 5469 5471 5474 5477 5481 5484 5488 5493 5498 5504 5510 5516 5522 5527 5533 5538 5543 5548
5485 5482 5479 5476 5473 5471 5469 5467 5465 5463 5462 5461 5460 5459 5458 5457 5456 5455 5455 5455 5454 5454 5455 5456 5457 5458 5459 5461 5464 5467 5470 5473 5477 5481 5486 5492 5497 5503 5509 5514 5519 5524 5529 5534
5480 5478 5475 5472 5469 5467 5464 5462 5460 5458 5457 5455 5454 5453 5452 5451 5450 5449 5449 5448 5448 5448 5448 5448 5449 5450 5451 5452 5455 5457 5460 5463 5466 5470 5475 5480 5485 5490 5495 5501 5506 5511 5516 5520
5475 5472 5470 5467 5464 5462 5459 5457 5455 5454 5452 5450 5449 5448 5446 5445 5444 5443 5442 5441 5441 5441 5441 5441 5441 5442 5443 5444 5446 5448 5450 5452 5456 5460 5464 5468 5473 5478 5482 5487 5492 5497 5502 5507
5470 5467 5464 5462 5459 5456 5454 5452 5450 5448 5446 5445 5443 5442 5441 5439 5438 5437 5436 5435 5434 5434 5433 5433 5434 5434 5435 5436 5438 5439 5441 5443 5446 5450 5453 5457 5462 5466 5471 5475 5479 5484 5488 5493
5464 5461 5459 5456 5454 5451 5449 5446 5444 5442 5441 5439 5437 5436 5435 5433 5432 5431 5430 5429 5428 5427 5427 5427 5427 5427 5428 5429 5430 5431 5433 5435 5437 5440 5443 5447 5451 5455 5459 5463 5467 5470 5475 5479
5459 5456 5453 5450 5448 5445 5443 5441 5439 5437 5435 5433 5432 5430 5429 5427 5426 5425 5424 5423 5422 5422 5421 5420 5420 5420 5421 5421 5422 5424 5425 5427 5429 5431 5433 5436 5440 5443 5447 5451 5454 5458 5462 5466
5454 5450 5447 5444 5442 5439 5437 5435 5433 5431 5429 5427 5426 5424 5422 5421 5420 5419 5418 5417 5416 5416 5415 5415 5414 5414 5414 5414 5415 5416 5417 5418 5420 5422 5424 5427 5429 5433 5436 5439 5443 5446 5450 5454
5448 5444 5441 5438 5436 5433 5430 5428 5426 5424 5423 5421 5420 5418 5417 5415 5414 5413 5412 5411 5410 5409 5409 5408 5408 5408 5407 5408 5408 5409 5409 5410 5412 5413 5415 5417 5420 5423 5426 5429 5432 5436 5439 5442
5441 5438 5435 5432 5429 5426 5423 5421 5419 5418 5416 5415 5413 5412 5411 5409 5408 5407 5406 5405 5404 5403 5402 5402 5401 5401 5401 5401 5401 5401 5402 5403 5404 5405 5407 5409 5411 5413 5416 5419 5422 5425 5428 5431
5435 5432 5428 5425 5422 5419 5416 5414 5412 5410 5409 5408 5407 5405 5404 5403 5402 5400 5399 5398 5397 5396 5395 5395 5394 5394 5394 5394 5394 5395 5395 5396 5396 5397 5398 5400 5402 5405 5407 5410 5413 5415 5418 5421
5429 5425 5422 5418 5415 5412 5409 5407 5405 5403 5402 5401 5400 5398 5397 5396 5395 5394 5393 5391 5390 5389 5389 5388 5387 5387 5387 5387 5387 5388 5388 5388 5389 5390 5391 5392 5394 5396 5398 5401 5403 5406 5408 5411
5423 5419 5415 5412 5408 5405 5402 5400 5398 5396 5394 5393 5392 5391 5390 5389 5388 5387 5386 5385 5384 5383 5382 5381 5381 5380 5380 5380 5380 5380 5381 5381 5381 5382 5383 5384 5386 5388 5390 5392 5394 5396 5399 5401
5416 5412 5409 5405 5402 5398 5395 5393 5391 5389 5387 5386 5385 5384 5383 5382 5381 5380 5379 5378 5377 5376 5375 5374 5374 5373 5373 5373 5373 5373 5373 5373 5374 5374 5375 5376 5377 5379 5381 5383 5385 5387 5389 5392
5410 5406 5402 5399 5395 5392 5388 5386 5384 5382 5380 5379 5378 5377 5376 5375 5374 5373 5372 5371 5370 5369 5368 5368 5367 5366 5366 5366 5366 5366 5366 5366 5366 5367 5367 5368 5369 5370 5372 5374 5376 5378 5380 5382
5404 5400 5396 5392 5389 5385 5382 5379 5377 5375 5373 5372 5371 5370 5369 5368 5367 5366 5365 5364 5363 5363 5362 5361 5360 5359 5359 5359 5358 5359 5359 5359 5359 5359 5360 5360 5361 5362 5364 5365 5367 5369 5371 5373
5398 5394 5390 5386 5383 5379 5376 5373 5370 5368 5367 5366 5364 5363 5362 5361 5360 5359 5358 5357 5357 5356 5355 5354 5353 5353 5352 5352 5352 5352 5352 5352 5352 5352 5353 5353 5353 5354 5355 5357 5358 5360 5361 5363
5392 5388 5384 5380 5377 5373 5370 5367 5364 5362 5361 5359 5358 5357 5356 5355 5354 5353 5352 5351 5350 5349 5349 5348 5347 5346 5346 5345 5345 5345 5345 5345 5345 5345 5345 5346 5346 5347 5348 5348 5349 5351 5352 5353
5387 5383 5379 5375 5371 5368 5364 5361 5359 5357 5355 5354 5352 5351 5350 5349 5348 5347 5346 5345 5344 5343 5342 5342 5341 5340 5339 5339 5338 5338 5338 5338 5338 5338 5338 5339 5339 5339 5340 5340 5341 5342 5343 5344
Wind_Speed
20 21 22 23 22 22 23 24 25 25 25 26 28 30 31 32 33 34 36 39 42 45 47 49 51 53 53 54 54 54 55 57 57 57 57 57 57 56 55 53 52 51 51 51
20 20 21 22 22 22 22 23 25 25 25 25 26 27 27 29 31 33 34 36 39 42 44 46 48 51 53 54 54 54 55 57 57 58 57 58 58 57 57 56 54 53 52 53
20 19 20 21 21 22 22 22 23 24 25 25 26 26 26 27 29 30 32 34 37 39 41 44 46 47 50 53 54 54 55 56 57 57 57 57 58 58 58 57 56 55 54 54
20 19 20 19 19 21 22 22 23 24 24 24 25 26 27 27 28 28 30 32 35 37 39 40 43 45 47 50 53 54 55 55 56 57 57 57 57 58 58 57 56 55 55 54
20 20 19 19 18 19 20 20 21 22 22 22 23 24 26 27 27 28 29 30 32 35 38 39 41 43 45 47 49 52 54 55 56 57 58 58 57 57 58 58 57 56 55 55
20 20 20 19 19 19 20 19 20 21 21 21 21 22 23 25 26 27 29 29 30 33 35 38 39 41 43 44 47 49 52 54 55 56 58 58 58 57 58 58 58 57 56 56
20 20 20 19 19 19 19 19 19 20 21 22 23 23 22 22 23 25 27 28 29 31 33 35 37 39 41 42 44 46 48 51 53 55 56 57 58 57 56 57 57 56 56 56
21 20 20 20 19 19 19 18 19 19 20 21 22 22 22 22 22 23 25 27 28 30 31 32 34 36 38 40 41 43 45 46 49 51 54 55 56 56 56 56 56 56 56 56
21 20 20 20 20 19 19 19 19 19 19 20 21 21 22 22 22 22 23 24 25 28 29 30 31 33 35 37 39 41 43 44 46 48 50 52 54 55 55 54 54 54 54 54
21 20 20 20 20 20 19 19 18 18 18 19 20 20 21 22 22 22 22 22 23 24 26 28 30 32 34 35 37 38 40 42 44 45 46 48 50 52 53 53 53 52 52 53
22 21 21 20 20 20 19 18 18 18 18 18 18 19 20 21 22 23 23 22 23 24 25 26 27 28 29 31 33 35 37 39 41 42 44 47 48 49 50 52 52 51 51 52
22 22 22 21 21 20 19 19 19 18 18 18 19 19 19 20 21 22 22 22 24 24 25 26 27 27 28 29 30 31 33 35 38 39 41 44 45 46 48 49 50 51 51 51
23 22 22 22 21 21 21 21 20 20 19 19 19 20 20 20 20 21 21 22 22 23 24 25 26 26 27 27 28 29 31 33 35 37 39 41 42 43 44 46 47 49 50 49
24 23 23 22 22 22 22 21 21 21 20 20 20 20 20 20 20 20 20 20 21 21 22 23 24 26 27 27 27 28 30 31 33 35 37 39 41 41 42 44 45 46 48 48
24 23 23 23 22 22 22 22 21 21 20 20 20 20 20 20 20 19 19 20 20 21 22 22 22 23 24 25 26 27 28 30 32 33 34 36 38 39 40 41 42 43 44 45
24 24 24 24 23 23 23 22 21 21 21 21 20 20 20 20 20 20 20 20 20 21 21 22 22 23 23 23 24 25 26 27 29 31 32 34 35 37 38 39 40 41 41 42
24 24 25 24 24 24 24 23 22 21 21 21 21 21 20 20 20 21 21 21 21 21 22 22 22 22 22 23 23 24 25 26 27 28 29 31 32 33 34 35 36 37 38 39
25 25 25 25 24 24 24 24 23 22 22 21 21 21 21 21 21 21 21 21 21 21 22 22 22 22 22 22 22 22 23 24 25 27 28 29 30 31 32 33 34 34 35 36
26 26 25 25 25 25 24 23 23 23 22 22 21 21 21 20 20 20 20 20 20 20 21 21 21 22 22 22 22 22 23 24 24 25 26 27 28 29 30 31 32 33 34 35
26 26 26 26 25 25 24 23 23 22 22 22 22 22 22 21 20 20 20 20 20 20 20 20 20 21 21 22 22 22 22 23 24 24 25 26 28 28 29 30 31 31 32 33
27 27 27 26 25 25 24 23 22 22 22 23 22 22 22 21 21 20 20 20 20 20 19 19 20 20 21 21 22 22 23 23 24 24 25 26 27 28 29 29 29 30 30 31
27 27 27 26 25 25 24 23 23 22 22 22 21 21 21 21 21 21 21 20 20 20 20 20 20 20 20 21 21 22 23 23 23 24 25 25 26 27 28 28 28 29 30 30
27 27 27 26 26 25 24 23 23 22 22 21 20 20 20 20 21 21 21 21 20 20 20 20 20 20 21 21 21 21 21 22 22 23 23 24 25 26 27 27 28 29 30 30
28 27 27 27 26 25 23 22 22 21 20 20 20 20 20 20 20 20 20 20 20 20 20 21 20 20 20 20 21 21 21 21 21 22 22 22 23 24 26 27 28 29 30 30
28 27 27 26 25 25 23 22 20 20 19 19 19 20 20 20 20 20 19 19 19 20 20 20 20 20 20 20 20 20 21 21 21 21 21 22 22 23 25 26 27 28 29 30
27 27 26 26 25 24 23 21 20 19 19 19 19 19 19 19 19 18 18 18 19 19 19 19 19 19 19 19 19 20 20 20 21 21 21 21 22 23 24 25 26 27 28 29
27 26 25 25 24 23 22 20 19 18 18 18 17 17 17 17 17 17 17 18 18 18 18 18 18 19 19 19 19 20 20 20 21 21 21 22 22 23 24 25 26 27 27 28
Wind_Direction
290 286 282 278 275 270 266 265 264 264 263 261 259 259 258 256 252 248 247 245 244 243 241 240 239 238 237 236 236 236 236 236 235 236 237 237 237 237 238 239 241 241 242 243
293 288 285 282 278 275 272 269 266 264 263 262 263 261 259 257 253 252 250 248 245 243 241 240 239 238 237 237 236 236 236 236 236 236 237 237 237 237 239 239 240 241 242 243
298 294 289 285 282 278 274 272 270 268 266 264 263 261 259 258 256 254 252 249 246 243 241 241 240 240 239 237 237 236 236 236 236 236 237 237 237 237 238 240 241 242 243 244
303 300 297 293 287 283 277 273 271 268 267 266 265 263 261 260 259 256 254 251 247 244 242 241 241 241 241 240 239 238 238 238 237 236 237 237 237 237 238 239 240 242 243 245
309 305 301 298 293 288 283 277 273 270 268 267 267 264 264 263 260 258 256 253 250 246 244 243 243 242 242 241 241 240 239 239 239 238 238 237 237 238 238 239 240 242 243 245
312 308 305 302 298 293 287 283 278 274 270 269 268 268 264 264 263 259 258 257 253 250 248 246 245 244 243 243 242 242 240 239 239 240 239 238 237 238 238 239 240 242 243 244
312 308 305 303 301 296 291 287 282 277 274 271 270 270 267 266 266 262 258 257 255 252 250 249 247 246 245 244 243 242 241 240 239 240 239 239 238 238 239 240 241 242 243 244
312 310 307 306 302 297 294 288 284 281 277 274 272 271 271 270 268 266 262 258 256 253 251 249 248 248 247 244 244 243 242 241 240 239 239 239 239 240 240 241 242 244 245 246
314 311 307 305 303 299 295 292 288 285 281 278 276 274 274 274 271 269 266 262 258 256 253 252 251 250 248 246 245 244 243 241 240 239 238 238 239 240 241 242 243 244 246 247
312 309 305 303 301 299 296 294 292 289 286 282 280 278 276 275 273 272 270 265 262 259 256 254 253 253 251 248 247 246 244 242 240 239 238 238 239 240 240 242 243 245 246 247
309 308 305 302 301 299 297 295 293 291 289 287 283 281 278 277 275 274 273 271 267 264 261 259 256 254 251 250 250 249 245 244 242 240 239 239 240 241 241 242 243 244 245 246
308 306 306 304 301 300 298 296 293 291 289 288 286 283 280 279 278 277 276 274 271 269 265 261 259 257 255 252 252 251 248 245 243 241 241 240 241 241 242 243 244 244 245 246
309 307 304 303 301 299 298 296 294 291 289 286 286 286 284 282 281 279 277 276 275 272 268 264 262 260 258 257 254 252 249 246 243 241 242 241 242 242 243 244 244 244 244 246
309 308 305 302 300 298 297 295 294 291 290 288 287 287 285 284 283 281 279 277 275 272 269 267 265 262 260 258 255 253 250 247 245 245 244 243 243 243 245 245 246 246 246 247
306 306 305 304 302 300 298 296 294 292 291 289 288 287 286 284 283 282 281 278 275 273 271 269 268 264 261 259 256 254 252 249 247 247 246 245 245 245 246 247 247 247 247 247
306 305 304 303 301 299 297 296 294 291 290 290 289 287 287 286 285 283 281 279 277 273 271 270 270 268 264 260 257 256 255 253 251 250 249 248 247 247 246 247 247 247 246 247
307 306 304 301 300 298 297 294 292 290 289 289 288 287 287 287 284 282 281 281 279 276 272 270 269 267 264 264 260 257 255 254 252 250 249 248 247 246 245 245 245 246 246 246
309 308 307 304 302 299 298 294 291 288 287 287 287 287 287 286 285 283 282 281 279 278 275 272 268 266 266 265 262 259 258 257 255 252 250 249 248 246 244 245 245 245 245 245
310 309 308 306 304 302 299 295 291 287 285 285 286 286 286 285 285 284 284 282 280 278 277 274 270 268 267 266 264 262 260 259 258 255 252 250 249 247 245 245 245 245 245 246
312 311 309 307 305 303 300 296 292 288 285 285 285 284 284 283 283 283 283 283 282 281 279 275 272 270 268 266 264 263 263 263 261 259 255 253 251 248 247 246 247 246 246 247
314 313 312 309 307 305 302 297 294 291 288 286 285 283 282 282 281 282 282 283 283 281 279 277 275 273 271 268 266 265 264 264 263 260 257 255 252 249 248 247 247 247 247 248
316 316 315 314 310 307 303 298 294 292 290 288 286 283 282 282 281 281 281 282 282 282 281 279 277 275 273 271 269 268 267 265 263 261 258 256 253 250 248 248 248 248 248 249
317 317 317 317 315 311 306 300 295 293 290 288 286 284 284 284 283 282 282 281 280 281 280 279 276 274 273 271 269 268 267 266 265 263 260 257 254 252 250 249 249 249 250 251
319 318 318 317 316 314 310 303 298 293 290 288 286 286 286 286 285 284 282 280 279 280 280 279 278 276 274 271 269 268 266 266 266 265 262 259 256 255 253 251 251 251 251 252
319 319 318 318 317 315 312 307 302 296 292 290 288 286 286 286 285 283 282 281 280 280 279 279 279 278 276 273 270 268 266 266 266 265 263 261 259 257 256 255 254 255 254 255
320 320 319 319 318 317 314 310 305 300 296 293 291 289 288 286 284 282 281 281 282 281 280 280 279 278 276 274 271 269 268 267 267 267 266 265 263 261 260 259 258 258 258 258
320 320 320 320 320 319 317 313 308 304 300 295 293 292 291 289 287 284 283 283 283 283 283 282 281 279 277 275 273 271 270 270 269 268 268 268 267 265 264 263 262 261 260 260